Hourly Data Report for March 24, 2004

SHERBROOKE A
QUEBEC

45°26'00.000" N
71°41'00.000" W
241.40 m
7028124
71610
YSC

Download Data

Hourly Data (March 2004)
Hourly Data Report for March 24, 2004
TIME
LST
Temp Definition
°C
Dew Point Definition
°C
Rel Hum Definition
%
Precip. Amount Definition
mm

Wind Dir Definition
10's deg

Wind Spd Definition
km/h
Visibility Definition
km
Stn Press Definition
kPa
Hmdx Definition


Wind Chill Definition


Weather Definition


00:00 -7.7 -9.3 88   27 9 15.0 99.54   -12  
01:00 -7.5 -9.2 88   26 7 15.0 99.67   -11  
02:00 -9.6 -10.6 92   23 6 15.0 99.73   -13  
03:00 -14.4 -15.8 89   23 6 12.9 99.82   -19  
04:00 -13.4 -14.6 91   23 4 15.0 99.89   -16  
05:00 -12.9 -14.0 91   25 6 11.3 99.98   -17  
06:00 -16.2 -17.2 92   26 6 11.3 100.08   -21  
07:00 -12.4 -13.4 92   16 4 12.9 100.18   -15  
08:00 -8.8 -10.2 90   24 6 24.1 100.23   -12 Clear
09:00 -6.1 -9.3 78     0 24.1 100.28     Mainly Clear
10:00 -4.3 -9.6 66   24 7 24.1 100.31   -7 Mainly Clear
11:00 -3.3 -11.5 53   20 7 24.1 100.27   -6 Clear
12:00 -2.0 -11.5 48   21 15 24.1 100.26   -7 Mainly Clear
13:00 -0.9 -12.5 41   20 15 24.1 100.22   -6 Mainly Clear
14:00 0.2 -12.0 39   19 9 24.1 100.15     Mostly Cloudy
15:00 1.6 -12.9 33   22 7 24.1 100.09     Mostly Cloudy
16:00 2.5 -11.2 36   18 4 24.1 100.05     Mostly Cloudy
17:00 2.7 -10.2 38   15 4 24.1 100.07     Mostly Cloudy
18:00 1.6 -9.5 43   9 6 15.0 100.06      
19:00 1.5 -9.1 45   12 6 15.0 100.08      
20:00 0.9 -7.8 52   12 4 15.0 100.08      
21:00 -0.8 -7.7 59   11 7 15.0 100.06   -3  
22:00 -0.2 -7.6 57   9 7 15.0 100.03   -3  
23:00 -2.4 -7.4 68   9 7 15.0 100.06   -5  

Notes on Data Quality.

Legend

  • E = Estimated
  • M = Missing
  • NA = Not Available*
  • [empty] = Indicates an unobserved value
Date modified: